Back to catalog

STARLINK-4179

AliveCommunicationsVLEO
NORAD 53275·PAYLOAD·🇺🇸 United States

Launched Jul 24, 2022 from Cape Canaveral Space Force Station

Loading…

Next Passes (next 24 hours)

TLE

FreshSource: CelesTrak SupGP

Epoch: Sep 14, 2026, 14:40 UTC

1 53275C 22086AK  26257.61159722 -.00038858  00000+0 -11119-2 0  2570
2 53275  53.1586  41.6041 0001189  90.6391 158.1888 15.35412894    17

Track STARLINK-4179 in real time with AllMySat

Download on the App Store